User: anonymous   Login
Location: Hamilton
(37.7830°S, 175.2830°E)
Time: 12:48:25
(UTC+13:00)
Language:

Cosmos 968 Rocket - Orbit

View from above orbital plane
View from above orbital plane
View from above satellite
View from above satellite

Ground track
Ground track

The orbit data is extracted from the following two-line orbital elements,

1 10521U 77119B   19077.63877066  .00000022  00000-0  15265-4 0  9998
2 10521  74.0288 163.4938 0020718  16.6700 343.5131 14.40745247164348
Epoch (UTC): 18 March 2019 15:19:49
Eccentricity: 0.0020718
inclination: 74.0288°
perigee height: 741 km
apogee height: 771 km
right ascension of ascending node: 163.4938°
argument of perigee: 16.6700°
revolutions per day: 14.40745247
mean anomaly at epoch: 343.5131°
orbit number at epoch: 16434

The dashed part of the orbit path shows where the satellite is in the earth's shadow,  

DLR